Flag for Bosnia-Herzegovina Weather past 2 weeks in Mostar, Bosnia-Herzegovina

Now
66 °F

Passing clouds.


Feels Like: 66 °F
Forecast: 63 / 89 °F
Wind: 2 mph from North

Location: Mostar

Current Time: Aug 22, 2014 at 12:36:46 AM

Latest Report: Aug 22, 2014 at 12:00 AM


Visibility: N/A

Pressure: 30.01 "Hg

Humidity: 94%

Dew point: 64 °F

Location of MostarLocation

Historic Weather in Mostar — Graph

°F

Mostar temperature yesterday

Maximum temperature yesterday: 90 °F (at 1:30 PM)
Minimum temperature yesterday: 61 °F (at 5:00 AM)
Average temperature yesterday: 71 °F

Past Weeks' High & Low Weather Summary

 TemperatureHumidityPressure
High97 °F (Aug 12, 3:30 PM)100% (Aug 8, 4:00 AM)30.01 "Hg (Aug 8, 4:00 AM)
Low54 °F (Aug 19, 6:00 AM)28% (Aug 12, 3:30 PM)29.74 "Hg (Aug 14, 2:30 PM)
Average77 °F60%29.90 "Hg
* Reported Aug 6 11:00 PM — Aug 21 11:00 PM, Mostar, Weather by CustomWeather, © 2014

Note: Actual official high and low records may vary slightly from our data, if they occured in-between our weather recording intervals... More about our weather records

Advertising

Mostar weather history for previous 24 hours

 ConditionsComfort  
Time TempWeatherWind HumidityBarometerVisibility
11:00 PM
Aug 21
66 °FPartly cloudy.2 mph94%29.98 "HgN/A
10:00 PM68 °FClear.1 mph94%29.98 "Hg10 mi
9:00 PM68 °FClear.3 mph94%29.98 "Hg10 mi
8:00 PM70 °FSunny.3 mph83%29.98 "Hg10 mi
7:00 PM70 °FPassing clouds.2 mph88%29.98 "HgN/A
6:00 PM70 °FPassing clouds.5 mph83%29.98 "HgN/A
5:30 PM70 °FPassing clouds.5 mph83%29.98 "HgN/A
5:00 PM68 °FScattered clouds.7 mph88%29.98 "HgN/A
4:30 PM66 °FLight rain. Broken clouds.5 mphN/A29.98 "HgN/A
4:00 PM64 °FThunderstorms. Partly sunny.5 mphN/A30.01 "HgN/A
3:30 PM64 °FThunderstorms. Partly sunny.6 mphN/A29.98 "HgN/A
3:00 PM64 °FThunderstorms. Partly sunny.9 mphN/A29.98 "Hg6 mi
2:30 PM66 °FStrong thunderstorms. Partly sunny.31 mph88%29.95 "Hg6 mi
2:00 PM86 °FPartly sunny.12 mph55%29.92 "HgN/A
1:30 PM90 °FScattered clouds.14 mph49%29.92 "HgN/A
1:00 PM86 °FScattered clouds.14 mph52%29.92 "HgN/A
12:30 PM88 °FScattered clouds.14 mph49%29.92 "HgN/A
12:00 PM86 °FPartly sunny.10 mph49%29.95 "HgN/A
11:30 AM84 °FScattered clouds.3 mph55%29.95 "HgN/A
11:00 AM81 °FScattered clouds.2 mph58%29.95 "HgN/A
10:30 AM79 °FScattered clouds.2 mph58%29.95 "HgN/A
10:00 AM75 °FPassing clouds.3 mph65%29.95 "HgN/A
9:30 AM73 °FPassing clouds.3 mph69%29.95 "HgN/A
9:00 AM72 °FScattered clouds.2 mph73%29.95 "HgN/A
8:30 AM70 °FPartly sunny.3 mph78%29.95 "HgN/A
8:00 AM68 °FPartly sunny.1 mph83%29.95 "HgN/A
7:30 AM64 °FPartly sunny.2 mph94%29.95 "HgN/A
7:00 AM64 °FScattered clouds.3 mph88%29.95 "HgN/A
6:30 AM63 °FPassing clouds.5 mph94%29.95 "HgN/A
6:00 AM63 °FPassing clouds.2 mph88%29.95 "HgN/A
5:00 AM61 °FClear.3 mph94%29.95 "Hg10 mi
4:00 AM63 °FClear.2 mph94%29.95 "Hg10 mi
3:00 AM63 °FClear.3 mph88%29.98 "Hg10 mi
2:00 AM64 °FPassing clouds.3 mph88%29.98 "HgN/A
1:00 AM66 °FClear.3 mph83%30.01 "Hg10 mi
12:00 AM68 °FClear.2 mph83%30.01 "Hg10 mi
Weather by CustomWeather, © 2014

See weather overviewHow to use our weather pages